Location: Cosy Dell
(34.2789°N, 117.4537°W)
Time: 21:13:52
(UTC+00:00)

ATLAS 5 CENTAUR R/B - Pass Details

Date: 14 July 2020
Orbit: 534 x 1124 km, 63.4° (Epoch: 09 August)

Event Time Altitude Azimuth Distance (km) Brightness Sun altitude
Rises 10:05:17 0° 340° (NNW) 3,355 5.8 -26.2°
Reaches altitude 10° 10:07:56 10° 352° (N) 2,517 5.2 -25.9°
Maximum altitude 10:13:04 30° 52° (NE) 1,660 4.3 -25.3°
Drops below altitude 10° 10:18:49 10° 111° (ESE) 2,839 5.1 -24.6°
Sets 10:21:59 0° 121° (ESE) 3,857 5.7 -24.2°
